Danbury, CT

8:42 PM EDT on August 21, 2017 (GMT -0400)
Danbury Municipal

Weather History for KDXR - December, 2001

Change the Weather History Date:

Friday, December 14, 2001

  Actual Average Record
Temperature  
Mean Temperature 48 °F -  
Max Temperature 57 °F 41 °F 62 °F (2015)
Min Temperature 42 °F 25 °F -2 °F (2005)
Degree Days  
Heating Degree Days 16    
Moisture  
Dew Point 47 °F    
Average Humidity 96    
Maximum Humidity 100    
Minimum Humidity 87    
Precipitation  
Precipitation 0.42 in - - ()
Sea Level Pressure  
Sea Level Pressure 29.89 in    
Wind  
Wind Speed 2 mph (ESE)    
Max Wind Speed 14 mph    
Max Gust Speed -    
Visibility 3 miles    
Events Fog , Rain , Thunderstorm    
Averages and records for this station are not official NWS values.
T = Trace of Precipitation, MM = Missing Value Source: NWS Daily Summary

Daily Weather History Graph

Daily Weather History Graph

Search for Another Location

Airport or City:

Trip Planner

Search our weather history database for the weather conditions in past years. The results will help you decide how hot, cold, wet, or windy it might be!

Date:

Astronomy

Dec. 14, 2001 Rise Set
Actual Time 7:12 AM EST 4:25 PM EST
Civil Twilight 6:41 AM EST 4:56 PM EST
Nautical Twilight 6:06 AM EST 5:31 PM EST
Astronomical Twilight 5:32 AM EST 6:04 PM EST
Moon 6:54 AM EST (12/14) 4:21 PM EST (12/14)
Length of Visible Light 10h 15m
Length of Day
9h 12m
Waning Crescent, 0% of the Moon is Illuminated
Dec 14
Waning Crescent
Dec 14
New
Dec 22
First Quarter
Dec 30
Full
Jan 5
Last Quarter

Hourly Weather History & Observations

Time (EST) Temp. Windchill Dew Point Humidity Pressure Visibility Wind Dir Wind Speed Gust Speed Precip Events Conditions
12:31 AM 50.0 °F - 48.2 °F 94% 29.93 in 4.0 mi West 3.5 mph - N/A   Overcast
12:53 AM 50.0 °F - 48.0 °F 93% 29.94 in 4.0 mi Calm Calm - N/A   Overcast
1:53 AM 48.9 °F - 48.0 °F 97% 29.96 in 4.0 mi WSW 3.5 mph - N/A   Scattered Clouds
2:23 AM 48.2 °F - 46.4 °F 93% 29.96 in 1.5 mi Calm Calm - N/A   Clear
2:25 AM 48.2 °F - 46.4 °F 93% 29.96 in 0.8 mi Calm Calm - N/A   Clear
2:37 AM 46.4 °F - 46.4 °F 100% 29.96 in 0.2 mi Calm Calm - N/A Fog Fog
2:53 AM 44.1 °F - 44.1 °F 100% 29.97 in 0.2 mi Calm Calm - N/A Fog Fog
3:53 AM 44.1 °F - 43.0 °F 96% 29.95 in 0.2 mi Calm Calm - N/A Fog Fog
4:53 AM 44.1 °F 40.8 °F 44.1 °F 100% 29.96 in 2.5 mi WSW 5.8 mph - N/A   Scattered Clouds
5:19 AM 42.8 °F - 42.8 °F 100% 29.95 in 1.0 mi Calm Calm - N/A   Clear
5:27 AM 42.8 °F - 42.8 °F 100% 29.95 in 0.5 mi Calm Calm - N/A Fog Fog
5:53 AM 42.1 °F 40.2 °F 42.1 °F 100% 29.97 in 0.5 mi SSW 3.5 mph - N/A Fog Fog
6:25 AM 42.8 °F - 42.8 °F 100% 29.98 in 1.2 mi Calm Calm - N/A   Mostly Cloudy
6:33 AM 42.8 °F - 42.8 °F 100% 29.98 in 2.0 mi Calm Calm - N/A   Mostly Cloudy
6:44 AM 42.8 °F - 42.8 °F 100% 29.99 in 2.0 mi Calm Calm - N/A   Scattered Clouds
6:53 AM 42.1 °F - 42.1 °F 100% 29.99 in 2.0 mi Calm Calm - N/A   Mostly Cloudy
7:19 AM 42.8 °F - 42.8 °F 100% 30.00 in 3.0 mi Calm Calm - N/A   Overcast
7:36 AM 44.6 °F - 42.8 °F 93% 30.00 in 2.0 mi Calm Calm - N/A   Overcast
7:53 AM 44.1 °F - 44.1 °F 100% 30.01 in 2.5 mi Calm Calm - N/A   Overcast
8:28 AM 46.4 °F - 46.4 °F 100% 30.01 in 3.0 mi Calm Calm - N/A   Overcast
8:35 AM 46.4 °F - 46.4 °F 100% 30.01 in 2.5 mi Calm Calm - N/A   Mostly Cloudy
8:53 AM 46.9 °F - 46.0 °F 97% 30.01 in 2.5 mi Calm Calm - 0.01 in   Mostly Cloudy
9:53 AM 48.9 °F - 48.0 °F 97% 30.02 in 2.5 mi Calm Calm - 0.00 in Rain Light Rain
10:27 AM 50.0 °F - 48.2 °F 94% 30.01 in 1.8 mi Calm Calm - 0.04 in Rain Light Rain
10:41 AM 50.0 °F - 50.0 °F 100% 30.00 in 1.5 mi Calm Calm - 0.06 in Rain Light Rain
10:53 AM 51.1 °F - 50.0 °F 96% 29.99 in 1.5 mi Calm Calm - 0.08 in Rain Light Rain
11:26 AM 51.8 °F - 50.0 °F 94% 29.98 in 2.0 mi Calm Calm - 0.03 in Rain Light Rain
11:53 AM 51.1 °F - 48.0 °F 89% 29.97 in 2.5 mi ENE 3.5 mph - 0.07 in Rain Rain
12:00 PM 50.0 °F - 46.4 °F 87% 29.96 in 4.0 mi East 3.5 mph - 0.02 in Rain Rain
12:53 PM 50.0 °F - 48.0 °F 93% 29.92 in 5.0 mi East 5.8 mph - 0.05 in Rain Light Rain
1:29 PM 50.0 °F - 46.4 °F 87% 29.90 in 9.0 mi Calm Calm - 0.02 in Rain Light Rain
1:53 PM 50.0 °F - 48.0 °F 93% 29.88 in 7.0 mi East 4.6 mph - 0.02 in   Overcast
2:38 PM 50.0 °F - 48.2 °F 94% 29.87 in 4.0 mi ENE 3.5 mph - 0.00 in Rain Light Rain
2:53 PM 50.0 °F - 48.0 °F 93% 29.85 in 3.0 mi ENE 6.9 mph - 0.01 in Rain Light Rain
3:53 PM 50.0 °F - 48.0 °F 93% 29.85 in 7.0 mi Variable 3.5 mph - 0.00 in Rain Light Rain
4:53 PM 50.0 °F - 48.0 °F 93% 29.83 in 5.0 mi East 9.2 mph - 0.02 in Rain Light Rain
5:19 PM 50.0 °F - 48.2 °F 94% 29.82 in 2.5 mi ESE 5.8 mph - 0.02 in Rain Rain
5:27 PM 48.2 °F - 48.2 °F 100% 29.82 in 3.0 mi Variable 5.8 mph - 0.05 in Rain Rain
5:53 PM 50.0 °F - 48.0 °F 93% 29.81 in 4.0 mi East 4.6 mph - 0.06 in Rain Light Rain
6:09 PM 48.2 °F - 48.2 °F 100% 29.79 in 2.5 mi ESE 4.6 mph - 0.03 in Rain Rain
6:23 PM 48.2 °F - 48.2 °F 100% 29.79 in 4.0 mi East 6.9 mph - 0.03 in Rain Light Rain
6:41 PM 48.2 °F - 48.2 °F 100% 29.77 in 2.5 mi Variable 3.5 mph - 0.03 in   Overcast
6:53 PM 48.9 °F - 48.0 °F 97% 29.77 in 2.5 mi ESE 4.6 mph - 0.03 in Rain Light Rain
7:12 PM 48.2 °F - 48.2 °F 100% 29.76 in 2.0 mi Calm Calm - N/A   Overcast
7:53 PM 48.9 °F - 48.0 °F 97% 29.74 in 2.5 mi Calm Calm - 0.01 in Rain Light Rain
8:21 PM 48.2 °F - 48.2 °F 100% 29.72 in 6.0 mi Calm Calm - 0.01 in   Overcast
8:53 PM 48.9 °F - 48.0 °F 97% 29.70 in 4.0 mi Calm Calm - 0.02 in Rain Light Rain
9:01 PM 48.2 °F - 48.2 °F 100% 29.70 in 4.0 mi Calm Calm - 0.00 in Rain , Thunderstorm Light Thunderstorms and Rain
9:08 PM 50.0 °F - 48.2 °F 94% 29.69 in 3.0 mi Calm Calm - 0.00 in Rain Light Rain
9:53 PM 54.0 °F - 53.1 °F 97% 29.69 in 6.0 mi Variable 5.8 mph - 0.03 in   Overcast
10:53 PM 55.9 °F - 54.0 °F 93% 29.69 in 4.0 mi WSW 6.9 mph - N/A   Overcast
11:53 PM 57.9 °F - 55.9 °F 93% 29.68 in 6.0 mi WSW 13.8 mph - 0.01 in   Overcast